Location: Brachbach
(49.1847°N, 9.7240°E)
Time: 05:46:04
(UTC+00:00)

PCSat - Pass Details

Date: 12 March 2026
Orbit: 780 x 790 km, 67.1° (Epoch: 13 April)

Event Time Altitude Azimuth Distance (km) Brightness Sun altitude
Exits shadow 02:06:38 13° 337° (NNW) 2,166 12.0 -33.5°
Maximum altitude 02:07:25 13° 346° (NNW) 2,144 12.0 -33.4°
Drops below altitude 10° 02:09:57 10° 14° (NNE) 2,365 12.6 -33.1°
Sets 02:13:49 0° 41° (NE) 3,296 13.9 -32.6°
